Simultaneous Nadir Overpasses (SNOs) Predictions

Prediction of SNOs between NOAA-19 and METOP-C Satellite Orbit:

Table of predicted SNOs for the next 14.0 days since TLE Epoch: 3/12/2022
Index Date (NOAA-19) Time (NOAA-19) Lat,Lon (NOAA-19) SZA (NOAA-19 ) Date (METOP-C) Time (METOP-C) Lat,Lon (METOP-C) SZA (METOP-C ) Distance(km) Time Diff (sec)
1 03/22/2022 23:40:01 -80.78, 37.42 98.89 03/22/2022 23:41:09 -80.79, 37.42 98.85 1.04 68
2 03/23/2022 00:30:59 80.78,-155.20 81.11 03/23/2022 00:31:49 80.79,-155.22 81.14 1.56 50
3 03/23/2022 01:22:01 -80.78, 11.94 98.91 03/23/2022 01:22:31 -80.79, 11.94 98.90 0.20 30
4 03/23/2022 02:12:59 80.78, 179.32 81.09 03/23/2022 02:13:11 80.79, 179.29 81.10 0.76 12
5 03/23/2022 03:04:01 -80.78, -13.54 98.94 03/23/2022 03:03:53 -80.78, -13.55 98.95 0.70 8
6 03/23/2022 03:54:59 80.78, 153.83 81.06 03/23/2022 03:54:33 80.78, 153.81 81.05 0.46 26
7 03/23/2022 04:46:01 -80.78, -39.01 98.96 03/23/2022 04:45:15 -80.77, -39.03 98.99 1.57 46



Historial Predications of SNOs between NOAA-19 and METOP-C
